Weather Roundup
Issued by NWS

Home | Current Version | Previous Version | Text Only | Print | Product List | Glossary On
Versions: 1 2 3 4 5 6 7 8 9 10 11 12 13 14 15 16 17 18 19 20 21 22 23 24 25 26 27 28 29 30 31 32 33 34 35 36 37 38 39 40 41 42 43 44 45 46 47 48 49 50
000
NZUS93 KARX 250910
HRRWXR

CURRENT HOURLY OBSERVATIONS ACROSS
MUCH OF THE UPPER MISSISSIPPI VALLEY
NATIONAL WEATHER SERVICE LA CROSSE WI
400 AM CDT SUN SEP 25 2016


...SOUTHEAST MINNESOTA...


CITY           SKY/WX    TMP DP  RH WIND       PRES   REMARKS
ROCHESTER      CLOUDY    67  66  97 S10       29.97F FOG
ROCHESTER/MAYO   N/A     67  67 100 SE7       29.96F
WINONA         LGT RAIN  66  63  88 SE8       29.97F
AUSTIN         CLOUDY    68  64  88 S8        29.95F FOG
ALBERT LEA     CLOUDY    66  66 100 S12       29.95F FOG
DODGE CENTER   PTCLDY    66  64  94 S7        29.95F FOG
PRESTON        CLOUDY    65  63  92 S10       29.99R FOG
OWATONNA       DRIZZLE   68  64  88 S7        29.95F
FARIBAULT      DRIZZLE   68  66  94 S7        29.94S
$$

...ELSEWHERE IN MINNESOTA...


CITY           SKY/WX    TMP DP  RH WIND       PRES   REMARKS
MINNEAPOLIS    CLOUDY    68  65  90 SE12      29.91F FOG
INTNL FALLS    RAIN      62  61  96 SE9       29.84F
DULUTH         CLOUDY    60  60 100 SE12      29.94F FOG
RED WING       DRIZZLE   68  64  88 SE7       29.93F
REDWOOD FALLS  CLOUDY    68  64  87 S10       29.87F
MANKATO        MOCLDY    68  66  93 S12       29.91F
WORTHINGTON    CLOUDY    61  55  82 W16       29.95R
FAIRMONT       LGT RAIN  67  65  93 S12       29.93F
$$

...SOUTHWEST WISCONSIN...


CITY           SKY/WX    TMP DP  RH WIND       PRES   REMARKS
LA CROSSE      CLOUDY    68  63  84 SE6       29.99F
PRAIRIE DU CHI CLOUDY    65  62  88 E7        30.01F
BOSCOBEL       MOCLDY    63  62  97 CALM      30.03F FOG
LONE ROCK      CLOUDY    63  61  93 E5        30.04F
PLATTEVILLE    MOCLDY    63  63 100 E8        30.05S
FORT MC COY    MOCLDY    63  61  95 SE5       30.02F
CAMP DOUGLAS   CLOUDY    59  59 100 E7        30.03F
MAUSTON-NEW LI PTSUNNY   60  59  97 CALM      30.04F FOG
VIROQUA        CLOUDY    62  62 100 SE8       30.03F
WIS DELLS      CLOUDY    63  60  91 SE3       30.06F
$$

...ELSEWHERE IN WISCONSIN...


CITY           SKY/WX    TMP DP  RH WIND       PRES   REMARKS
MILWAUKEE      PTCLDY    65  62  90 SE6       30.11S
MADISON        CLOUDY    63  61  93 S3        30.06F
GREEN BAY      CLOUDY    61  59  93 SE6       30.11F
EAU CLAIRE     CLOUDY    65  62  90 SE13      29.98F
BLACK RVR FLS  PTSUNNY   63  63 100 CALM      30.01F FOG
MEDFORD        CLOUDY    58  58 100 SE9G17    30.06F
WAUSAU         MOCLDY    56  54  93 E7        30.07F
WIS RAPIDS     CLOUDY    58  57  97 SE6       30.07F
MARSHFIELD     MOCLDY    58  55  90 SE8       30.05F
RICE LAKE      CLOUDY    63  59  89 SE10G16   30.00F
$$

...NORTHEAST IOWA...


CITY           SKY/WX    TMP DP  RH WIND       PRES   REMARKS
WATERLOO       LGT RAIN  69  67  93 SE6       29.97F FOG
DUBUQUE        CLOUDY    65  63  93 SE14      30.03S FOG
DECORAH        CLOUDY    64  64 100 SE10G21   29.99F FOG
MASON CITY     LGT RAIN  68  67  96 S14       29.98S FOG
CHARLES CITY   CLOUDY    68  68 100 SE8       29.98F FOG
OELWEIN        CLOUDY    68  66  94 S7        30.02S FOG
$$

...ELSEWHERE IN IOWA...


CITY           SKY/WX    TMP DP  RH WIND       PRES   REMARKS
DES MOINES     LGT RAIN  70  69  97 S7        29.96F
IOWA CITY      PTCLDY    69  67  93 VRB5      30.02S
FORT DODGE     CLOUDY    66  64  94 S5        29.96R
MARSHALLTOWN   LGT RAIN  69  68  96 S8        29.97F
CEDAR RAPIDS   CLOUDY    68  68 100 SE3       30.00F
$$

...NORTHERN ILLINOIS...


CITY           SKY/WX    TMP DP  RH WIND       PRES   REMARKS
CHICAGO-OHARE  PTCLDY    66  61  84 SE7       30.11R
CHICAGO-MIDWAY PTCLDY    68  59  73 SE9       30.11S
MOLINE         MOCLDY    66  64  93 E6        30.02F FOG
ROCKFORD       MOCLDY    66  63  90 SE7       30.08F
PEORIA         CLEAR     72  68  87 SE8       30.05F
$$

NOTE: "FAIR" INDICATES FEW OR NO CLOUDS BELOW 12,000 FEET WITH NO
SIGNIFICANT WEATHER AND/OR OBSTRUCTIONS TO VISIBILITY. WIND
SPEEDS ARE IN MILES-PER-HOUR.




USA.gov is the U.S. government's official web portal to all federal, state and local government web resources and services.